| time (UTC) | temp F | wind direction | speed knots | gust knots | rain 1hr in | rain 24hr in | rain mn in | humidity % | barometer mb |
| 20260504215107 | 73 | 247 | 13.9 | 17.4 | 0.00 | 0.00 | 0.00 | 55 | 999.4 |
| 20260504214603 | 72 | 240 | 7.8 | 11.3 | 0.00 | 0.00 | 0.00 | 58 | 999.5 |
| 20260504214059 | 72 | 239 | 8.7 | 11.3 | 0.00 | 0.00 | 0.00 | 59 | 999.9 |
| 20260504213556 | 72 | 216 | 11.3 | 23.5 | 0.00 | 0.00 | 0.00 | 57 | 999.6 |
| 20260504213053 | 73 | 228 | 17.4 | 22.6 | 0.00 | 0.00 | 0.00 | 56 | 1000.1 |
| 20260504212549 | 74 | 244 | 13.9 | 22.6 | 0.00 | 0.00 | 0.00 | 56 | 999.9 |
| 20260504212046 | 75 | 223 | 13.0 | 17.4 | 0.00 | 0.00 | 0.00 | 57 | 1000.1 |
| 20260504211543 | 75 | 255 | 11.3 | 15.6 | 0.00 | 0.00 | 0.00 | 54 | 1000.2 |
| 20260504211040 | 75 | 251 | 8.7 | 13.9 | 0.00 | 0.00 | 0.00 | 55 | 1000.0 |
| 20260504210537 | 75 | 220 | 11.3 | 17.4 | 0.00 | 0.00 | 0.00 | 53 | 1000.3 |
| 20260504210033 | 75 | 256 | 17.4 | 20.9 | 0.00 | 0.00 | 0.00 | 55 | 1000.4 |
| 20260504205532 | 74 | 229 | 8.7 | 13.0 | 0.00 | 0.00 | 0.00 | 55 | 1000.5 |
| 20260504205029 | 75 | 222 | 12.2 | 13.0 | 0.00 | 0.00 | 0.00 | 57 | 1000.4 |
| 20260504204527 | 75 | 232 | 9.6 | 13.9 | 0.00 | 0.00 | 0.00 | 55 | 1000.6 |
| 20260504204026 | 74 | 271 | 17.4 | 26.9 | 0.00 | 0.00 | 0.00 | 57 | 1000.4 |
| 20260504203523 | 74 | 251 | 8.7 | 11.3 | 0.00 | 0.00 | 0.00 | 56 | 1000.6 |
| 20260504203021 | 74 | 225 | 9.6 | 20.9 | 0.00 | 0.00 | 0.00 | 57 | 1000.9 |
| 20260504202516 | 74 | 249 | 12.2 | 17.4 | 0.00 | 0.00 | 0.00 | 57 | 1000.9 |
| 20260504202013 | 74 | 230 | 10.4 | 20.9 | 0.00 | 0.00 | 0.00 | 56 | 1001.0 |
| 20260504201510 | 75 | 226 | 7.8 | 13.9 | 0.00 | 0.00 | 0.00 | 57 | 1001.0 |
| 20260504201008 | 74 | 244 | 7.8 | 15.6 | 0.00 | 0.00 | 0.00 | 57 | 1001.4 |
| 20260504200504 | 74 | 227 | 14.8 | 17.4 | 0.00 | 0.00 | 0.00 | 59 | 1001.2 |
| 20260504200001 | 73 | 232 | 11.3 | 13.0 | 0.00 | 0.00 | 0.00 | 57 | 1001.2 |
| 20260504195457 | 73 | 228 | 15.6 | 23.5 | 0.00 | 0.00 | 0.00 | 61 | 1001.6 |
| 20260504194954 | 74 | 238 | 9.6 | 13.0 | 0.00 | 0.00 | 0.00 | 58 | 1001.7 |
| 20260504194450 | 73 | 211 | 8.7 | 13.0 | 0.00 | 0.00 | 0.00 | 58 | 1001.6 |
| 20260504193945 | 73 | 251 | 7.0 | 13.0 | 0.00 | 0.00 | 0.00 | 58 | 1001.6 |
| 20260504193443 | 73 | 227 | 10.4 | 15.6 | 0.00 | 0.00 | 0.00 | 58 | 1001.6 |
| 20260504192942 | 73 | 229 | 7.0 | 11.3 | 0.00 | 0.00 | 0.00 | 57 | 1001.6 |
| 20260504192438 | 73 | 225 | 11.3 | 17.4 | 0.00 | 0.00 | 0.00 | 58 | 1001.8 |
| 20260504191937 | 74 | 249 | 9.6 | 13.9 | 0.00 | 0.00 | 0.00 | 55 | 1001.7 |
| 20260504191435 | 74 | 218 | 9.6 | 13.9 | 0.00 | 0.00 | 0.00 | 55 | 1001.7 |
| 20260504190930 | 74 | 267 | 13.0 | 15.6 | 0.00 | 0.00 | 0.00 | 52 | 1001.8 |
| 20260504190426 | 74 | 267 | 13.0 | 15.6 | 0.00 | 0.00 | 0.00 | 52 | 1001.9 |
| 20260504185923 | 74 | 267 | 13.0 | 15.6 | 0.00 | 0.00 | 0.00 | 52 | 1001.9 |
| 20260504185420 | 74 | 267 | 13.0 | 15.6 | 0.00 | 0.00 | 0.00 | 52 | 1001.8 |
| 20260504184916 | 74 | 267 | 13.0 | 15.6 | 0.00 | 0.00 | 0.00 | 52 | 1001.9 |
| 20260504184412 | 74 | 267 | 13.0 | 15.6 | 0.00 | 0.00 | 0.00 | 52 | 1002.0 |
| 20260504183908 | 74 | 267 | 13.0 | 15.6 | 0.00 | 0.00 | 0.00 | 52 | 1002.0 |
| 20260504183405 | 73 | 204 | 7.8 | 9.6 | 0.00 | 0.00 | 0.00 | 48 | 1002.1 |
| 20260504182903 | 73 | 204 | 7.8 | 9.6 | 0.00 | 0.00 | 0.00 | 48 | 1002.1 |
| 20260504182400 | 73 | 204 | 7.8 | 9.6 | 0.00 | 0.00 | 0.00 | 48 | 1002.1 |
| 20260504181856 | 73 | 208 | 6.1 | 9.6 | 0.00 | 0.00 | 0.00 | 48 | 1002.2 |
| 20260504181354 | 73 | 257 | 13.9 | 15.6 | 0.00 | 0.00 | 0.00 | 46 | 1002.4 |
| 20260504180853 | 72 | 261 | 20.9 | 22.6 | 0.00 | 0.00 | 0.00 | 44 | 1002.3 |
| 20260504180351 | 72 | 234 | 15.6 | 20.9 | 0.00 | 0.00 | 0.00 | 45 | 1002.4 |
| 20260504175849 | 72 | 234 | 15.6 | 20.9 | 0.00 | 0.00 | 0.00 | 45 | 1002.4 |
| 20260504175345 | 73 | 236 | 20.9 | 22.6 | 0.00 | 0.00 | 0.00 | 43 | 1002.5 |
| 20260504174843 | 72 | 255 | 7.0 | 9.6 | 0.00 | 0.00 | 0.00 | 44 | 1002.8 |
| 20260504174341 | 72 | 255 | 10.4 | 11.3 | 0.00 | 0.00 | 0.00 | 44 | 1002.9 |
| 20260504173837 | 72 | 258 | 7.8 | 9.6 | 0.00 | 0.00 | 0.00 | 44 | 1002.9 |
| 20260504173334 | 72 | 249 | 10.4 | 13.0 | 0.00 | 0.00 | 0.00 | 48 | 1002.9 |
| 20260504172831 | 72 | 244 | 15.6 | 19.1 | 0.00 | 0.00 | 0.00 | 49 | 1003.1 |
| 20260504172328 | 72 | 241 | 9.6 | 9.6 | 0.00 | 0.00 | 0.00 | 51 | 1003.0 |
| 20260504171824 | 72 | 260 | 11.3 | 13.0 | 0.00 | 0.00 | 0.00 | 51 | 1003.1 |
| 20260504171321 | 71 | 246 | 7.0 | 9.6 | 0.00 | 0.00 | 0.00 | 48 | 1003.4 |
| 20260504170818 | 71 | 246 | 7.0 | 9.6 | 0.00 | 0.00 | 0.00 | 48 | 1003.2 |
| 20260504170315 | 71 | 164 | 9.6 | 13.9 | 0.00 | 0.00 | 0.00 | 47 | 1003.4 |
| 20260504160233 | 69 | 177 | 7.0 | 11.3 | 0.00 | 0.00 | 0.00 | 58 | 1004.1 |
| 20260504150659 | 65 | 230 | 7.8 | 9.6 | 0.00 | 0.00 | 0.00 | 64 | 1004.7 |
| 20260504150155 | 65 | 254 | 7.8 | 9.6 | 0.00 | 0.00 | 0.00 | 65 | 1004.6 |
| 20260504141124 | 63 | 233 | 6.1 | 7.8 | 0.00 | 0.00 | 0.00 | 69 | 1004.8 |
| 20260504140621 | 63 | 255 | 6.1 | 13.0 | 0.00 | 0.00 | 0.00 | 71 | 1004.6 |
| 20260504140117 | 62 | 243 | 5.2 | 7.8 | 0.00 | 0.00 | 0.00 | 71 | 1004.8 |
| 20260504130545 | 57 | 263 | 9.6 | 11.3 | 0.00 | 0.00 | 0.00 | 76 | 1005.4 |
| 20260504110433 | 45 | 224 | 1.7 | 3.5 | 0.00 | 0.00 | 0.00 | 93 | 1005.3 |
| 20260504100349 | 45 | 228 | 0.9 | 1.7 | 0.00 | 0.00 | 0.00 | 94 | 1005.1 |
| 20260504081743 | 46 | 233 | 0.9 | 3.5 | 0.00 | 0.00 | 0.00 | 91 | 1005.7 |
| 20260504081239 | 46 | 232 | 1.7 | 4.3 | 0.00 | 0.00 | 0.00 | 91 | 1006.0 |
| 20260504080735 | 46 | 243 | 0.9 | 3.5 | 0.00 | 0.00 | 0.00 | 91 | 1005.9 |
| 20260504080232 | 46 | 237 | 1.7 | 1.7 | 0.00 | 0.00 | 0.00 | 91 | 1006.0 |
| 20260504070200 | 47 | 203 | 2.6 | 4.3 | 0.00 | 0.00 | 0.00 | 88 | 1007.2 |
| 20260504060120 | 47 | 219 | 1.7 | 4.3 | 0.00 | 0.00 | 0.00 | 86 | 1007.7 |
| 20260504050548 | 48 | 219 | 3.5 | 6.1 | 0.00 | 0.00 | 0.00 | 85 | 1008.1 |
| 20260504045542 | 48 | 240 | 5.2 | 6.1 | 0.00 | 0.00 | 0.00 | 85 | 1008.2 |
| 20260504045037 | 48 | 208 | 3.5 | 6.1 | 0.00 | 0.00 | 0.00 | 84 | 1008.2 |
| 20260504044535 | 48 | 199 | 6.1 | 6.1 | 0.00 | 0.00 | 0.00 | 85 | 1008.1 |
| 20260504044032 | 48 | 185 | 3.5 | 6.1 | 0.00 | 0.00 | 0.00 | 84 | 1008.5 |
| 20260504043529 | 48 | 193 | 3.5 | 7.8 | 0.00 | 0.00 | 0.00 | 84 | 1008.4 |
| 20260504043026 | 48 | 211 | 3.5 | 4.3 | 0.00 | 0.00 | 0.00 | 84 | 1008.4 |
| 20260504042523 | 48 | 215 | 3.5 | 4.3 | 0.00 | 0.00 | 0.00 | 84 | 1008.2 |
| 20260504042020 | 48 | 210 | 2.6 | 4.3 | 0.00 | 0.00 | 0.00 | 84 | 1008.4 |
| 20260504041516 | 48 | 173 | 7.0 | 9.6 | 0.00 | 0.00 | 0.00 | 84 | 1008.5 |
| 20260504041012 | 48 | 232 | 3.5 | 4.3 | 0.00 | 0.00 | 0.00 | 83 | 1008.4 |
| 20260504040510 | 48 | 196 | 4.3 | 6.1 | 0.00 | 0.00 | 0.00 | 83 | 1008.4 |
| 20260504040006 | 48 | 224 | 3.5 | 4.3 | 0.00 | 0.00 | 0.00 | 83 | 1008.4 |
| 20260504035503 | 48 | 172 | 6.1 | 9.6 | 0.00 | 0.00 | 0.00 | 83 | 1008.6 |
| 20260504034959 | 48 | 209 | 6.1 | 7.8 | 0.00 | 0.00 | 0.00 | 82 | 1008.5 |
| 20260504034457 | 48 | 191 | 5.2 | 7.8 | 0.00 | 0.00 | 0.00 | 82 | 1008.6 |
| 20260504033954 | 48 | 223 | 6.1 | 6.1 | 0.00 | 0.00 | 0.00 | 82 | 1008.9 |
| 20260504033452 | 48 | 216 | 3.5 | 7.8 | 0.00 | 0.00 | 0.00 | 82 | 1008.9 |
| 20260504032949 | 48 | 190 | 3.5 | 6.1 | 0.00 | 0.00 | 0.00 | 82 | 1008.7 |
| 20260504032446 | 48 | 168 | 5.2 | 7.8 | 0.00 | 0.00 | 0.00 | 82 | 1009.1 |
| 20260504031942 | 48 | 196 | 4.3 | 6.1 | 0.00 | 0.00 | 0.00 | 81 | 1009.0 |
| 20260504031439 | 49 | 201 | 2.6 | 6.1 | 0.00 | 0.00 | 0.00 | 81 | 1009.0 |
| 20260504030936 | 49 | 235 | 4.3 | 7.8 | 0.00 | 0.00 | 0.00 | 81 | 1009.0 |
| 20260504030433 | 49 | 181 | 5.2 | 6.1 | 0.00 | 0.00 | 0.00 | 81 | 1009.1 |
| 20260504025929 | 49 | 192 | 2.6 | 6.1 | 0.00 | 0.00 | 0.00 | 81 | 1009.1 |
| 20260504025426 | 49 | 198 | 3.5 | 6.1 | 0.00 | 0.00 | 0.00 | 80 | 1008.9 |
| 20260504024923 | 49 | 216 | 3.5 | 11.3 | 0.00 | 0.00 | 0.00 | 80 | 1009.1 |
| 20260504024420 | 49 | 245 | 5.2 | 7.8 | 0.00 | 0.00 | 0.00 | 80 | 1009.2 |
| 20260504023917 | 49 | 227 | 2.6 | 4.3 | 0.00 | 0.00 | 0.00 | 80 | 1009.1 |
| 20260504023413 | 49 | 197 | 4.3 | 4.3 | 0.00 | 0.00 | 0.00 | 80 | 1009.2 |
| 20260504022909 | 49 | 184 | 4.3 | 6.1 | 0.00 | 0.00 | 0.00 | 80 | 1009.2 |
| 20260504022406 | 49 | 184 | 2.6 | 6.1 | 0.00 | 0.00 | 0.00 | 81 | 1009.2 |
| 20260504021903 | 49 | 153 | 8.7 | 11.3 | 0.00 | 0.00 | 0.00 | 80 | 1009.3 |
| 20260504021400 | 49 | 200 | 4.3 | 4.3 | 0.00 | 0.00 | 0.00 | 80 | 1009.2 |
| 20260504020857 | 49 | 179 | 5.2 | 7.8 | 0.00 | 0.00 | 0.00 | 81 | 1009.5 |
| 20260504020353 | 49 | 193 | 4.3 | 6.1 | 0.00 | 0.00 | 0.00 | 81 | 1009.4 |
| 20260504015849 | 49 | 181 | 6.1 | 11.3 | 0.00 | 0.00 | 0.00 | 81 | 1009.5 |
| 20260504015346 | 49 | 211 | 1.7 | 9.6 | 0.00 | 0.00 | 0.00 | 81 | 1009.3 |
| 20260504014842 | 49 | 192 | 2.6 | 7.8 | 0.00 | 0.00 | 0.00 | 81 | 1009.3 |
| 20260504014338 | 49 | 183 | 2.6 | 6.1 | 0.00 | 0.00 | 0.00 | 81 | 1009.4 |
| 20260504013836 | 49 | 195 | 3.5 | 6.1 | 0.00 | 0.00 | 0.00 | 80 | 1009.3 |
| 20260504013333 | 50 | 184 | 4.3 | 4.3 | 0.00 | 0.00 | 0.00 | 80 | 1009.5 |
| 20260504012830 | 50 | 205 | 3.5 | 4.3 | 0.00 | 0.00 | 0.00 | 80 | 1009.4 |
| 20260504012328 | 50 | 167 | 3.5 | 6.1 | 0.00 | 0.00 | 0.00 | 79 | 1009.5 |
| 20260504011825 | 50 | 184 | 4.3 | 6.1 | 0.00 | 0.00 | 0.00 | 80 | 1009.4 |
| 20260504011321 | 50 | 220 | 2.6 | 11.3 | 0.00 | 0.00 | 0.00 | 79 | 1009.5 |
| 20260504010817 | 50 | 195 | 2.6 | 7.8 | 0.00 | 0.00 | 0.00 | 79 | 1009.5 |
| 20260504010313 | 50 | 173 | 5.2 | 7.8 | 0.00 | 0.00 | 0.00 | 79 | 1009.5 |
| 20260504005810 | 50 | 172 | 2.6 | 6.1 | 0.00 | 0.00 | 0.00 | 79 | 1009.4 |
| 20260504005307 | 51 | 224 | 4.3 | 6.1 | 0.00 | 0.00 | 0.00 | 78 | 1009.4 |
| 20260504004804 | 51 | 220 | 6.1 | 9.6 | 0.00 | 0.00 | 0.00 | 79 | 1009.7 |
| 20260504004302 | 51 | 203 | 4.3 | 6.1 | 0.00 | 0.00 | 0.00 | 78 | 1009.6 |
| 20260504003758 | 51 | 224 | 6.1 | 6.1 | 0.00 | 0.00 | 0.00 | 79 | 1009.7 |
| 20260504003255 | 51 | 201 | 3.5 | 7.8 | 0.00 | 0.00 | 0.00 | 78 | 1009.7 |
| 20260504002751 | 51 | 201 | 1.7 | 6.1 | 0.00 | 0.00 | 0.00 | 78 | 1009.5 |
| 20260504002249 | 51 | 225 | 3.5 | 6.1 | 0.00 | 0.00 | 0.00 | 79 | 1009.7 |
| 20260504001746 | 51 | 172 | 4.3 | 6.1 | 0.00 | 0.00 | 0.00 | 77 | 1009.6 |
| 20260504001243 | 51 | 200 | 3.5 | 6.1 | 0.00 | 0.00 | 0.00 | 77 | 1009.5 |
| 20260504000740 | 51 | 193 | 5.2 | 6.1 | 0.00 | 0.00 | 0.00 | 77 | 1009.6 |
| 20260504000237 | 52 | 225 | 3.5 | 6.1 | 0.00 | 0.00 | 0.00 | 78 | 1010.0 |
| 20260503235735 | 52 | 197 | 5.2 | 6.1 | 0.00 | 0.00 | 0.00 | 77 | 1009.7 |
| 20260503235232 | 52 | 163 | 5.2 | 9.6 | 0.00 | 0.00 | 0.00 | 77 | 1009.9 |
| 20260503234730 | 52 | 203 | 3.5 | 13.0 | 0.00 | 0.00 | 0.00 | 77 | 1009.9 |
| 20260503234227 | 52 | 215 | 6.1 | 11.3 | 0.00 | 0.00 | 0.00 | 76 | 1010.0 |
| 20260503233725 | 52 | 183 | 4.3 | 6.1 | 0.00 | 0.00 | 0.00 | 77 | 1009.8 |
| 20260503233220 | 52 | 186 | 2.6 | 4.3 | 0.00 | 0.00 | 0.00 | 77 | 1010.0 |
| 20260503232717 | 52 | 233 | 2.6 | 6.1 | 0.00 | 0.00 | 0.00 | 77 | 1010.3 |
| 20260503232214 | 52 | 218 | 3.5 | 9.6 | 0.00 | 0.00 | 0.00 | 76 | 1009.9 |
| 20260503231713 | 52 | 207 | 4.3 | 7.8 | 0.00 | 0.00 | 0.00 | 76 | 1010.2 |
| 20260503231209 | 52 | 226 | 5.2 | 6.1 | 0.00 | 0.00 | 0.00 | 76 | 1010.3 |
| 20260503230705 | 52 | 198 | 3.5 | 4.3 | 0.00 | 0.00 | 0.00 | 76 | 1010.6 |
| 20260503230202 | 52 | 229 | 7.8 | 15.6 | 0.00 | 0.00 | 0.00 | 76 | 1010.3 |
| 20260503225659 | 52 | 219 | 3.5 | 4.3 | 0.00 | 0.00 | 0.00 | 76 | 1010.3 |
| 20260503225154 | 52 | 231 | 9.6 | 9.6 | 0.00 | 0.00 | 0.00 | 76 | 1010.7 |
| 20260503224651 | 52 | 247 | 3.5 | 6.1 | 0.00 | 0.00 | 0.00 | 76 | 1010.8 |
| 20260503224149 | 52 | 192 | 3.5 | 7.8 | 0.00 | 0.00 | 0.00 | 76 | 1010.9 |
| 20260503223647 | 53 | 244 | 7.0 | 7.8 | 0.00 | 0.00 | 0.00 | 74 | 1010.7 |
| 20260503223143 | 53 | 232 | 13.0 | 15.6 | 0.00 | 0.00 | 0.00 | 72 | 1011.0 |
| 20260503222640 | 53 | 217 | 3.5 | 7.8 | 0.00 | 0.00 | 0.00 | 73 | 1011.0 |
| 20260503222138 | 53 | 245 | 9.6 | 15.6 | 0.00 | 0.00 | 0.00 | 72 | 1011.0 |
| 20260503221636 | 53 | 241 | 9.6 | 13.9 | 0.00 | 0.00 | 0.00 | 73 | 1011.1 |
| 20260503221133 | 53 | 259 | 9.6 | 15.6 | 0.00 | 0.00 | 0.00 | 73 | 1011.2 |
| 20260503220630 | 53 | 241 | 8.7 | 11.3 | 0.00 | 0.00 | 0.00 | 74 | 1011.0 |
| 20260503220126 | 53 | 235 | 18.2 | 22.6 | 0.00 | 0.00 | 0.00 | 71 | 1011.2 |
| 20260503215624 | 53 | 223 | 10.4 | 19.1 | 0.00 | 0.00 | 0.00 | 72 | 1011.0 |